Weather History for KJST - December, 2012

Change the Weather History Date:

Saturday, December 1, 2012

  Actual Average Record
Temperature  
Mean Temperature 42 °F 33 °F  
Max Temperature 52 °F 39 °F 67 °F (1962)
Min Temperature 33 °F 27 °F 7 °F (1929)
Degree Days  
Heating Degree Days 22 32  
Month to date heating degree days 32  
Since 1 July heating degree days 1489  
Cooling Degree Days 0 0  
Month to date cooling degree days 0  
Year to date cooling degree days 382  
Moisture  
Dew Point 28 °F    
Average Humidity 59    
Maximum Humidity 76    
Minimum Humidity 48    
Precipitation  
Precipitation 0.00 in 0.09 in 0.81 in (2010)
Month to date precipitation 0.09  
Year to date precipitation 31.14  
Sea Level Pressure  
Sea Level Pressure 30.32 in    
Wind  
Wind Speed 6 mph (South)    
Max Wind Speed 10 mph    
Max Gust Speed -    
Visibility 10 miles    
Events      
T = Trace of Precipitation, MM = Missing Value Source: NWS Daily Summary

Daily Weather History Graph

Daily Weather History Graph

Search for Another Location

Airport or City:

Trip Planner

Search our weather history database for the weather conditions in past years. The results will help you decide how hot, cold, wet, or windy it might be!

Date:

Astronomy

Dec. 01, 2012 Rise Set
Actual Time 7:19 AM EST 4:49 PM EST
Civil Twilight 6:49 AM EST 5:19 PM EST
Nautical Twilight 6:15 AM EST 5:53 PM EST
Astronomical Twilight 5:42 AM EST 6:26 PM EST
Moon 7:38 PM EST (12/1) 9:30 AM EST (12/1)
Length of Visible Light 10h 30m
Length of Day
9h 30m
Waning Gibbous, 92% of the Moon is Illuminated
Dec 1
Waning Gibbous
Dec 6
Last Quarter
Dec 13
New
Dec 20
First Quarter
Dec 28
Full

Hourly Weather History & Observations

Time (EST) Temp. Windchill Dew Point Humidity Pressure Visibility Wind Dir Wind Speed Gust Speed Precip Events Conditions
12:54 AM 37.0 °F 33.3 °F 21.9 °F 54% 30.30 in 10.0 mi South 4.6 mph - N/A   Mostly Cloudy
1:54 AM 37.0 °F 34.5 °F 21.9 °F 54% 30.30 in 10.0 mi SSW 3.5 mph - N/A   Clear
2:54 AM 34.0 °F 28.8 °F 23.0 °F 64% 30.30 in 10.0 mi SSE 5.8 mph - N/A   Clear
3:54 AM 36.0 °F 32.1 °F 23.0 °F 59% 30.30 in 10.0 mi SSW 4.6 mph - N/A   Clear
4:54 AM 35.1 °F 30.1 °F 23.0 °F 61% 30.31 in 10.0 mi South 5.8 mph - N/A   Clear
6:54 AM 33.1 °F 27.7 °F 23.0 °F 66% 30.36 in 10.0 mi South 5.8 mph - N/A   Clear
7:54 AM 33.1 °F 27.7 °F 24.1 °F 70% 30.38 in 10.0 mi South 5.8 mph - N/A   Clear
8:54 AM 39.9 °F 35.8 °F 26.1 °F 58% 30.36 in 10.0 mi South 5.8 mph - N/A   Mostly Cloudy
9:54 AM 44.1 °F 39.0 °F 26.1 °F 49% 30.36 in 10.0 mi South 9.2 mph - N/A   Clear
10:54 AM 46.9 °F - 28.9 °F 50% 30.36 in 10.0 mi South 10.4 mph - N/A   Clear
11:54 AM 48.9 °F - 30.0 °F 48% 30.33 in 10.0 mi WSW 6.9 mph - N/A   Clear
12:54 PM 51.1 °F - 34.0 °F 52% 30.30 in 10.0 mi SSW 9.2 mph - N/A   Clear
1:54 PM 52.0 °F - 34.0 °F 50% 30.29 in 10.0 mi South 8.1 mph - N/A   Scattered Clouds
2:54 PM 50.0 °F - 30.9 °F 48% 30.30 in 10.0 mi SSE 10.4 mph - N/A   Clear
4:54 PM 44.1 °F 40.1 °F 30.9 °F 60% 30.31 in 10.0 mi SSE 6.9 mph - N/A   Clear
6:54 PM 44.1 °F 38.6 °F 30.9 °F 60% 30.34 in 10.0 mi SSE 10.4 mph - N/A   Scattered Clouds
7:54 PM 43.0 °F 38.8 °F 30.0 °F 60% 30.34 in 10.0 mi SE 6.9 mph - N/A   Mostly Cloudy
8:54 PM 41.0 °F 37.1 °F 30.0 °F 65% 30.32 in 10.0 mi SSE 5.8 mph - N/A   Clear
9:54 PM 39.9 °F 35.1 °F 30.9 °F 70% 30.32 in 8.0 mi South 6.9 mph - N/A   Scattered Clouds
10:54 PM 39.0 °F 34.0 °F 30.9 °F 73% 30.31 in 7.0 mi South 6.9 mph - N/A   Scattered Clouds
11:54 PM 37.0 °F 31.6 °F 30.0 °F 76% 30.31 in 7.0 mi South 6.9 mph - N/A   Clear